Dewpoint
74 75 76 75 74 74 74 74 75 76 75 74 74 74 73 74 75 74 74 73 72 73 73 73 73 73 73 73 73 74 74 74 75 73 74 73 72 73 72 72 74 73 74
75 75 76 76 74 74 74 74 75 75 75 74 73 73 74 75 74 73 73 72 73 72 73 73 73 73 73 73 73 73 74 75 74 72 74 71 69 69 72 73 73 73 74
74 75 75 76 75 74 74 74 75 74 74 73 73 74 74 73 72 73 72 72 72 72 73 73 73 73 74 74 73 73 74 74 74 72 72 69 70 70 71 72 73 73 73
74 74 74 76 76 74 74 74 74 74 73 73 73 73 73 73 72 72 71 72 71 72 73 74 74 74 75 74 74 72 74 73 74 72 71 70 70 69 71 73 72 72 73
73 74 75 77 76 74 74 74 74 74 73 73 73 73 74 72 71 71 71 72 73 74 75 75 75 75 75 76 75 73 75 74 71 72 70 70 70 70 71 71 72 71 71
73 73 76 77 75 75 75 74 74 74 73 73 72 73 71 71 71 71 72 73 74 75 76 76 76 76 76 74 75 75 74 75 73 71 72 72 72 72 73 70 70 70 69
71 74 74 77 77 76 75 75 74 74 73 73 73 71 71 70 71 72 72 74 75 75 76 77 77 77 76 75 75 74 76 75 72 71 70 70 71 73 72 70 71 70 70
71 73 75 76 77 76 75 75 75 74 73 72 72 72 70 71 71 73 73 74 75 76 77 77 77 76 75 75 75 74 75 74 73 72 73 73 72 72 73 71 71 70 70
74 75 75 75 76 76 76 76 75 73 72 72 72 71 71 71 73 74 75 76 76 76 76 77 77 77 75 76 75 75 74 73 71 73 71 73 74 73 73 73 73 72 72
74 75 75 75 75 75 76 76 74 72 72 72 73 72 72 74 75 76 77 76 78 78 78 77 78 76 75 76 75 76 75 75 73 74 74 74 75 74 74 73 72 72 72
73 74 75 75 75 74 74 73 73 73 73 73 74 74 75 72 73 73 76 77 79 78 77 78 78 75 76 76 75 75 75 73 73 74 75 75 75 74 74 74 73 72 72
71 73 74 75 74 74 73 71 71 72 72 73 73 72 73 73 73 72 74 77 74 76 78 77 76 74 75 75 74 74 73 73 73 73 74 76 75 75 75 75 74 73 73
71 73 74 74 74 72 72 72 73 73 72 73 72 70 71 73 71 73 71 71 71 73 70 73 72 74 73 74 73 73 71 73 73 74 75 76 76 75 75 75 75 75 74
71 72 73 73 71 72 73 73 73 72 69 70 67 71 71 70 70 70 72 71 71 71 70 73 72 74 73 73 72 71 71 73 73 73 74 75 76 75 75 74 74 74 74
70 71 72 73 73 73 73 72 72 67 66 69 66 72 72 69 71 71 70 70 69 69 71 72 73 73 72 73 72 71 72 73 73 73 73 74 75 75 74 74 74 73 73
69 70 71 71 73 73 72 70 70 68 68 69 66 72 72 70 70 70 69 70 68 70 71 73 73 73 72 72 70 72 73 72 73 73 72 73 75 75 73 73 73 72 72
68 68 70 70 72 73 71 69 68 67 69 68 66 70 71 68 68 70 70 70 71 71 71 72 73 73 73 73 72 71 73 72 72 72 71 71 71 72 72 72 71 71 71
68 67 68 70 71 71 69 69 70 68 67 67 66 70 69 70 67 71 71 71 72 70 71 71 72 71 72 72 71 72 72 71 72 71 70 69 70 69 70 71 70 69 69
67 67 66 70 70 70 70 71 70 68 68 68 66 67 69 71 72 71 71 71 71 71 71 70 72 71 70 71 71 72 71 71 70 68 67 68 68 67 66 68 69 68 66
67 68 66 70 70 70 71 72 71 70 68 68 68 69 70 72 72 72 71 71 71 71 70 70 70 71 70 71 68 70 71 70 69 68 67 67 66 65 65 63 63 64 66
67 68 68 69 70 71 72 71 70 69 68 69 68 69 71 71 72 71 71 70 70 70 70 69 70 70 70 70 68 67 70 69 62 61 61 62 64 64 62 62 62 62 62
67 68 69 69 70 70 71 70 70 70 70 69 68 70 71 70 72 71 71 71 71 71 70 69 70 70 70 71 67 66 65 66 66 61 60 61 60 61 61 61 61 61 61
67 68 69 70 70 71 71 71 71 71 70 70 70 69 70 70 71 71 71 72 71 71 69 69 69 68 68 70 69 68 64 63 64 64 60 60 59 59 59 60 60 60 59
67 69 69 71 71 71 71 71 70 70 69 69 69 70 70 70 70 70 71 71 71 71 69 70 68 68 69 68 70 71 68 65 63 61 62 58 58 56 57 59 59 59 59
68 69 70 70 71 71 71 71 70 69 69 70 69 70 70 71 70 70 70 71 71 71 69 71 70 70 68 69 69 70 68 68 66 61 60 58 58 57 57 58 59 59 59
68 68 70 71 71 71 72 71 70 70 70 70 70 69 70 70 71 71 70 70 72 70 69 69 71 70 69 70 70 70 69 67 66 60 60 57 55 55 57 57 58 59 58
Lifted_Index
-2 -2 -2 -2 -1 -1 -1 -1 -2 -2 -2 -2 -2 -1 -1 -2 -2 -2 -2 -2 -2 -2 -2 -2 -3 -3 -3 -4 -4 -4 -4 -4 -3 -3 -2 -2 -1 -1 -2 -3 -3 -4 -4
-2 -2 -2 -2 -1 -1 -1 -1 -2 -2 -2 -2 -1 -1 -2 -2 -2 -2 -2 -2 -2 -2 -2 -3 -3 -3 -4 -4 -4 -4 -3 -3 -3 -2 -1 -1 -0 -1 -2 -2 -3 -3 -4
-2 -2 -2 -2 -1 -1 -1 -1 -1 -1 -1 -1 -1 -1 -2 -2 -2 -1 -1 -1 -2 -2 -2 -3 -3 -4 -4 -4 -4 -3 -3 -3 -2 -1 -0 1 1 0 -1 -2 -3 -3 -3
-2 -2 -2 -2 -2 -1 -1 -1 -1 -1 -1 -1 -1 -1 -1 -1 -1 -1 -1 -1 -2 -2 -3 -3 -4 -4 -4 -4 -4 -3 -3 -3 -2 -1 0 1 1 0 -1 -2 -2 -2 -2
-2 -2 -3 -3 -2 -2 -2 -2 -1 -1 -1 -1 -1 -1 -2 -1 -1 -1 -1 -2 -2 -3 -3 -4 -4 -4 -4 -4 -4 -4 -4 -3 -2 -1 0 1 0 -0 -1 -1 -1 -1 -1
-2 -2 -3 -3 -3 -2 -2 -2 -2 -2 -1 -1 -1 -2 -2 -1 -1 -1 -2 -2 -3 -3 -4 -4 -4 -4 -4 -4 -4 -4 -4 -3 -2 -1 0 -0 -1 -1 -1 -1 -0 -0 -0
-2 -2 -3 -3 -3 -3 -3 -2 -2 -2 -1 -1 -1 -1 -1 -1 -1 -2 -2 -3 -3 -3 -4 -4 -4 -4 -4 -4 -3 -3 -3 -3 -2 -1 -0 -1 -1 -2 -1 -1 -1 -0 -0
-2 -3 -4 -4 -4 -3 -3 -3 -2 -2 -1 -1 -1 -1 -1 -1 -2 -2 -3 -3 -3 -4 -4 -4 -4 -4 -4 -3 -3 -3 -3 -2 -2 -1 -1 -1 -1 -2 -2 -1 -1 -1 -1
-3 -3 -4 -4 -4 -4 -4 -3 -3 -2 -1 -1 -1 -1 -1 -2 -2 -3 -3 -4 -4 -4 -4 -4 -4 -4 -4 -4 -3 -3 -3 -2 -2 -2 -2 -2 -2 -2 -2 -2 -2 -2 -2
-4 -4 -4 -4 -4 -4 -4 -3 -2 -2 -2 -2 -2 -1 -1 -2 -3 -3 -4 -4 -4 -4 -4 -4 -4 -4 -4 -4 -3 -3 -3 -2 -2 -2 -2 -2 -3 -3 -3 -2 -2 -2 -2
-3 -4 -4 -4 -4 -4 -4 -3 -2 -2 -2 -2 -2 -2 -2 -2 -2 -3 -3 -4 -4 -4 -4 -4 -4 -4 -4 -3 -3 -2 -2 -2 -2 -3 -3 -3 -3 -3 -3 -3 -3 -3 -3
-3 -3 -4 -4 -3 -3 -3 -2 -2 -2 -2 -2 -2 -2 -2 -2 -2 -2 -3 -3 -3 -3 -3 -3 -3 -3 -3 -3 -2 -2 -2 -2 -2 -3 -3 -3 -4 -4 -3 -3 -3 -3 -3
-2 -3 -3 -3 -3 -2 -2 -2 -2 -2 -2 -2 -2 -1 -2 -2 -2 -2 -2 -3 -2 -2 -3 -3 -3 -2 -2 -2 -2 -1 -1 -2 -2 -2 -3 -3 -4 -4 -4 -3 -3 -3 -3
-2 -2 -2 -3 -2 -2 -2 -2 -2 -2 -2 -2 -2 -2 -2 -2 -2 -2 -2 -2 -2 -2 -2 -2 -2 -2 -2 -2 -1 -1 -1 -1 -2 -2 -2 -3 -3 -3 -3 -3 -3 -3 -3
-2 -2 -2 -2 -2 -2 -2 -2 -1 -1 -1 -2 -2 -2 -2 -2 -2 -2 -2 -2 -2 -3 -3 -2 -2 -2 -2 -1 -1 -1 -1 -1 -1 -1 -2 -2 -2 -3 -2 -2 -2 -2 -2
-2 -2 -2 -2 -2 -2 -2 -1 -0 0 -0 -1 -2 -2 -2 -2 -2 -2 -2 -2 -3 -3 -3 -3 -2 -2 -2 -1 -1 -1 -1 -1 -1 -1 -1 -1 -1 -2 -2 -1 -1 -1 -1
-2 -2 -2 -2 -2 -2 -2 -1 1 1 1 0 -0 -1 -2 -2 -2 -2 -2 -2 -3 -3 -3 -3 -2 -2 -2 -1 -1 -1 -1 -1 -1 -0 -0 0 -0 -0 -0 -0 0 0 0
-2 -2 -2 -2 -2 -2 -2 -1 -0 1 1 1 0 -1 -2 -2 -2 -2 -2 -2 -3 -3 -3 -3 -2 -2 -2 -2 -1 -1 -1 -1 -1 0 1 1 1 1 1 1 1 2 2
-2 -2 -3 -2 -2 -2 -2 -2 -2 -1 0 1 1 -1 -2 -3 -2 -2 -2 -2 -2 -2 -3 -3 -2 -2 -2 -1 -1 -1 -0 -0 -0 1 2 3 3 3 3 3 3 3 4
-2 -2 -2 -2 -2 -2 -2 -2 -2 -2 -1 0 -0 -1 -2 -3 -3 -2 -2 -2 -2 -2 -2 -2 -2 -2 -2 -1 -1 -0 0 0 1 2 3 3 4 4 5 5 5 5 5
-2 -2 -2 -2 -2 -2 -2 -2 -2 -2 -2 -1 -1 -1 -2 -2 -3 -2 -2 -2 -2 -2 -2 -2 -2 -2 -2 -1 -0 0 1 1 2 2 3 4 5 5 6 6 6 6 6
-2 -2 -2 -2 -2 -3 -3 -2 -2 -2 -2 -1 -1 -1 -2 -2 -2 -2 -2 -2 -2 -2 -2 -2 -2 -2 -2 -1 -1 0 1 1 2 3 3 4 5 6 7 7 7 7 7
-2 -2 -2 -2 -3 -3 -3 -3 -2 -2 -2 -2 -2 -2 -2 -2 -2 -2 -2 -3 -3 -2 -2 -2 -1 -1 -1 -1 -1 -0 0 1 2 3 3 4 5 6 7 8 8 8 8
-2 -2 -2 -2 -3 -3 -3 -3 -2 -2 -3 -3 -3 -2 -2 -2 -2 -2 -2 -3 -3 -2 -2 -2 -1 -1 -1 -1 -1 -1 -0 1 1 2 3 4 5 5 7 8 9 9 9
-3 -3 -2 -2 -3 -3 -3 -3 -3 -3 -3 -3 -3 -3 -2 -2 -2 -2 -2 -2 -3 -3 -2 -2 -2 -1 -1 -1 -2 -1 -1 0 1 1 2 3 4 5 6 8 9 10 10
-3 -3 -2 -2 -3 -3 -3 -3 -3 -3 -3 -3 -3 -3 -2 -2 -2 -2 -2 -2 -2 -3 -2 -2 -2 -2 -1 -2 -2 -1 -1 0 1 1 2 3 4 5 6 7 9 10 11